Regional Weather Roundup
Issued by NWS

Home | Current Version | Previous Version | Text Only | Print | Product List | Glossary Off
Versions: 1 2 3 4 5 6 7 8 9 10 11 12 13 14 15 16 17 18 19 20 21 22 23 24 25 26 27 28 29 30 31 32 33 34 35 36 37 38 39 40 41 42 43 44 45 46 47 48 49 50

000
ASUS43 KFSD 220110
RWRSD

WEATHER ROUNDUP FOR SOUTH DAKOTA
NATIONAL WEATHER SERVICE SIOUX FALLS SD
800 PM CDT THU AUG 21 2014

NOTE: "FAIR" INDICATES FEW OR NO CLOUDS BELOW 12,000 FEET WITH NO
SIGNIFICANT WEATHER AND/OR OBSTRUCTIONS TO VISIBILITY.


SDZ001>005-009-010-012>017-220200-
NORTHWEST AND NORTH CENTRAL SOUTH DAKOTA

CITY           SKY/WX    TMP DP  RH WIND       PRES   REMARKS
BUFFALO          N/A     72  59  63 NE13      29.90S
FAITH            N/A     77  61  57 E6        29.94S
MOBRIDGE       CLEAR     75  64  68 N7        29.89R
$$

SDZ012>016-024>037-041>051-057-063-072>074-220200-
SOUTHWEST AND SOUTH CENTRAL SOUTH DAKOTA

CITY           SKY/WX    TMP DP  RH WIND       PRES   REMARKS
RAPID CTY ARPT PTCLDY    73  58  59 N9        29.94F
PIERRE         CLEAR     84  64  50 N5        29.87S
CUSTER         MOCLDY    66  54  65 NE7       30.09S
ELLSWORTH AFB  TSTM      75  57  53 N8        29.95F
PHILIP         PTCLDY    85  51  31 E7        29.89F
PINE RIDGE     PTCLDY    81  58  45 E9        29.94F
WINNER         FAIR      84  61  45 N5        29.90S
$$

SDZ004>011-016>023-039-040-220200-
NORTHEAST SOUTH DAKOTA

CITY           SKY/WX    TMP DP  RH WIND       PRES   REMARKS
ABERDEEN       CLEAR     76  66  71 N7        29.88R
WATERTOWN      CLEAR     77  68  73 N6        29.87S
SISSETON         N/A     76  74  93 CALM      29.84R
$$

SDZ017-020-022-023-036>040-048>070-220200-
SOUTHEAST SOUTH DAKOTA

CITY           SKY/WX    TMP DP  RH WIND       PRES   REMARKS
SIOUX FALLS    PTCLDY    79  70  74 N6        29.86R
HURON          PTCLDY    79  66  64 N8        29.85S
CHAMBERLAIN    PTCLDY    82  64  53 N3        29.88R
MITCHELL       PTCLDY    80  68  66 N6        29.85S
YANKTON        CLEAR     82  72  69 N5        29.83S
$$

ABBREVIATIONS USED IN REMARKS
   TC - TEMPERATURE IN CELSIUS
  WCI - WIND CHILL INDEX
   HX - HEAT INDEX
  VSB - VISIBILITY



USA.gov is the U.S. government's official web portal to all federal, state and local government web resources and services.